Le nostre stazioni meteo in Italia

Pubblicità
Il mio iltempo24.it
Capo Mele, Italia (16153): Temperatura & dewpoint: 19.05.2019 08:00:00 - 25.05.2019 08:00:00 (CEST)Capo Mele, Italia (16153): velocità del vento: 19.05.2019 08:00:00 - 25.05.2019 08:00:00 (CEST)Capo Mele, Italia (16153): direzione del vento: 19.05.2019 08:00:00 - 25.05.2019 08:00:00 (CEST)Capo Mele, Italia (16153): reduced air pressure: 19.05.2019 08:00:00 - 25.05.2019 08:00:00 (CEST)Capo Mele, Italia (16153): visibility: 19.05.2019 08:00:00 - 25.05.2019 08:00:00 (CEST)Capo Mele, Italia (16153): ore di luce: 19.05.2019 08:00:00 - 25.05.2019 08:00:00 (CEST)
Data & Tempo tt [°C] td [°C] ff [km/h] ff [kn] dd ppp [hPa] vv [km] sd [min]
25.05.2019 08:00:00 - - - - - - - -
25.05.2019 07:00:00 13,8 13,0 0 0 N 1014,4 20 -
25.05.2019 06:00:00 14,2 13,6 0 0 N 1014,4 25 -
25.05.2019 05:00:00 14,4 13,6 0 0 N 1014,3 20 -
25.05.2019 04:00:00 14,8 14,0 5 3 NNE 1014,1 25 -
25.05.2019 03:00:00 14,8 13,8 5 3 N 1014,1 25 -
25.05.2019 02:00:00 15,0 13,4 5 3 NNE 1014,8 25 -
25.05.2019 01:00:00 15,0 13,2 5 3 NNE 1014,9 20 -
25.05.2019 00:00:00 15,2 13,2 5 3 N 1015,0 25 -
24.05.2019 23:00:00 15,2 13,2 5 3 NNE 1014,9 20 -
24.05.2019 22:00:00 15,8 13,5 0 0 N 1014,2 25 -
24.05.2019 21:00:00 16,0 13,5 0 0 N 1014,2 25 -
24.05.2019 20:00:00 17,0 14,3 0 0 N 1014,1 20 18
24.05.2019 19:00:00 17,4 13,5 0 0 N 1014,5 20 42
24.05.2019 18:00:00 17,6 13,7 0 0 N 1014,7 20 0
24.05.2019 17:00:00 19,0 13,4 0 0 N 1014,7 20 6
24.05.2019 16:00:00 19,2 14,0 0 0 N 1014,8 30 0
24.05.2019 15:00:00 19,0 14,7 0 0 N 1015,9 20 0
24.05.2019 14:00:00 19,2 14,5 0 0 N 1015,8 20 0
24.05.2019 13:00:00 18,8 13,7 0 0 N 1015,9 20 0
24.05.2019 12:00:00 18,4 13,7 0 0 N 1015,9 20 0
24.05.2019 11:00:00 18,0 14,1 0 0 N 1015,9 20 0
24.05.2019 10:00:00 16,8 13,7 0 0 N 1015,9 10 0
24.05.2019 09:00:00 15,8 13,7 0 0 N 1015,6 10 0
24.05.2019 08:00:00 14,6 13,1 0 0 N 1015,7 10 -
24.05.2019 07:00:00 14,8 13,7 0 0 N 1015,4 10 -
24.05.2019 06:00:00 15,2 14,1 0 0 N 1015,3 10 -
24.05.2019 05:00:00 15,2 14,2 0 0 N 1015,6 10 -
24.05.2019 04:00:00 14,8 13,8 0 0 N 1016,2 10 -
24.05.2019 03:00:00 14,8 13,5 0 0 N 1016,3 10 -
24.05.2019 02:00:00 14,8 13,8 0 0 N 1016,4 10 -
24.05.2019 01:00:00 14,8 13,8 0 0 N 1016,3 10 -
24.05.2019 00:00:00 14,4 13,3 0 0 N 1016,3 10 -
23.05.2019 23:00:00 14,6 13,7 0 0 N 1016,4 10 -
23.05.2019 22:00:00 14,8 13,8 5 3 SSO 1016,3 10 -
23.05.2019 21:00:00 14,8 13,7 8 4 SSO 1016,1 10 -
23.05.2019 20:00:00 15,6 13,6 5 3 S 1016,1 15 0
23.05.2019 19:00:00 16,0 13,5 5 3 S 1016,1 10 0
23.05.2019 18:00:00 16,0 13,5 8 4 S 1016,1 15 0
23.05.2019 17:00:00 16,4 13,9 8 4 ESE 1016,9 15 30
23.05.2019 16:00:00 16,8 13,9 8 4 E 1017,1 15 60
23.05.2019 15:00:00 17,0 13,3 8 4 NE 1017,7 10 36
23.05.2019 14:00:00 17,0 13,3 5 3 NE 1017,9 15 18
23.05.2019 13:00:00 17,0 13,7 5 3 NE 1018,0 15 6
23.05.2019 12:00:00 16,4 13,3 5 3 NNE 1018,0 10 0
23.05.2019 11:00:00 16,6 13,9 5 3 NNE 1017,7 10 0
23.05.2019 10:00:00 17,6 13,5 5 3 NNE 1017,4 10 12
23.05.2019 09:00:00 16,0 14,0 0 0 N 1017,3 10 0
23.05.2019 08:00:00 14,4 13,4 0 0 N 1017,1 15 -
23.05.2019 07:00:00 14,2 13,3 0 0 N 1017,1 10 -
23.05.2019 06:00:00 14,4 13,8 4 2 SSO 1017,2 10 -
23.05.2019 05:00:00 14,4 13,6 8 4 SSO 1017,2 10 -
23.05.2019 04:00:00 14,4 13,4 11 6 SO 1017,4 15 -
23.05.2019 03:00:00 14,6 13,3 8 4 SO 1017,5 10 -
23.05.2019 02:00:00 14,8 12,5 15 8 SSO 1017,4 10 -
23.05.2019 01:00:00 14,8 12,1 0 0 N 1017,2 10 -
23.05.2019 00:00:00 15,0 12,3 15 8 OSO 1017,0 10 -
22.05.2019 23:00:00 14,4 12,4 15 8 OSO 1016,5 15 -
22.05.2019 22:00:00 14,4 13,1 18 10 OSO 1016,2 10 -
22.05.2019 21:00:00 14,8 12,8 18 10 OSO 1016,1 10 -
22.05.2019 20:00:00 16,0 13,3 22 12 OSO 1015,6 4,0 36
22.05.2019 19:00:00 16,6 13,7 18 10 O 1015,5 4,0 48
22.05.2019 18:00:00 16,0 12,2 15 8 O 1016,0 4,0 6
22.05.2019 17:00:00 18,0 14,9 11 6 S 1015,9 4,0 48
22.05.2019 16:00:00 17,8 15,6 9 5 E 1015,9 5 18
22.05.2019 15:00:00 16,4 14,8 15 8 ENE 1016,0 0,5 0
22.05.2019 14:00:00 16,4 14,1 15 8 ENE 1016,0 0,1 0
22.05.2019 13:00:00 17,0 14,3 15 8 ENE 1016,0 0,1 -
22.05.2019 12:00:00 15,6 12,0 28 15 ENE 1015,9 4,0 0
22.05.2019 11:00:00 17,0 13,7 24 13 ENE 1015,2 4,0 18
22.05.2019 10:00:00 17,0 15,0 28 15 ENE 1015,0 4,0 24
22.05.2019 09:00:00 15,0 13,9 22 12 ENE 1015,0 4,0 0
22.05.2019 08:00:00 14,6 13,3 5 3 E 1014,7 20 -
22.05.2019 07:00:00 14,2 13,3 5 3 ENE 1013,3 20 0
22.05.2019 06:00:00 14,0 13,2 9 5 S 1012,9 20 -
22.05.2019 05:00:00 14,0 13,2 0 0 N 1012,9 20 -
22.05.2019 04:00:00 14,0 13,2 0 0 N 1013,0 20 -
22.05.2019 03:00:00 13,8 12,0 0 0 N 1013,1 20 -
22.05.2019 02:00:00 14,0 12,4 0 0 N 1013,1 20 -
22.05.2019 01:00:00 14,0 13,1 0 0 N 1013,1 20 -
22.05.2019 00:00:00 14,4 13,3 0 0 N 1013,0 20 -
21.05.2019 23:00:00 14,8 13,8 0 0 N 1013,8 20 -
21.05.2019 22:00:00 15,0 14,2 0 0 N 1013,0 20 -
21.05.2019 21:00:00 15,0 13,5 0 0 N 1013,0 20 -
21.05.2019 20:00:00 14,6 11,9 0 0 N 1012,6 20 0
21.05.2019 19:00:00 15,1 12,4 0 0 N 1012,3 20 0
21.05.2019 18:00:00 15,8 12,4 0 0 N 1012,2 20 0
21.05.2019 17:00:00 15,8 12,0 0 0 N 1012,1 20 0
21.05.2019 16:00:00 16,2 12,4 0 0 N 1011,9 20 0
21.05.2019 15:00:00 16,6 13,5 0 0 N 1011,4 20 6
21.05.2019 14:00:00 18,8 13,7 0 0 N 1010,8 20 0
21.05.2019 13:00:00 17,6 13,3 0 0 N 1010,8 20 12
21.05.2019 12:00:00 16,2 12,7 0 0 N 1010,8 20 0
21.05.2019 11:00:00 14,8 12,5 0 0 N 1010,6 20 0
21.05.2019 10:00:00 14,2 12,2 0 0 N 1010,1 10 0
21.05.2019 09:00:00 13,2 11,3 4 2 SO 1009,4 10 0
21.05.2019 08:00:00 12,6 11,5 8 4 SO 1009,2 12 -
21.05.2019 07:00:00 12,0 10,9 0 0 N 1009,2 15 -
21.05.2019 06:00:00 12,2 11,3 4 2 SO 1009,2 15 -
21.05.2019 05:00:00 12,2 11,3 0 0 N 1009,2 20 -
21.05.2019 04:00:00 11,8 11,0 0 0 N 1009,4 30 -
21.05.2019 03:00:00 12,2 11,4 0 0 N 1009,4 30 -
21.05.2019 02:00:00 12,2 11,4 0 0 N 1009,4 20 -
21.05.2019 01:00:00 12,2 11,4 0 0 N 1009,2 30 -
21.05.2019 00:00:00 12,8 12,0 0 0 N 1009,2 35 -
20.05.2019 23:00:00 12,8 12,0 0 0 N 1009,1 35 -
20.05.2019 22:00:00 12,8 12,0 0 0 N 1008,4 30 -
20.05.2019 21:00:00 13,0 12,2 4 2 SO 1008,3 20 -
20.05.2019 20:00:00 13,2 12,4 0 0 N 1008,1 20 0
20.05.2019 19:00:00 14,2 12,9 0 0 N 1007,9 20 0
20.05.2019 18:00:00 14,6 13,0 5 3 OSO 1007,7 20 0
20.05.2019 17:00:00 13,8 13,0 5 3 OSO 1007,8 20 0
20.05.2019 16:00:00 13,2 13,2 9 5 SO 1007,8 10 0
20.05.2019 15:00:00 15,4 13,4 28 15 OSO 1006,9 20 18
20.05.2019 14:00:00 15,8 13,1 28 15 OSO 1006,8 30 42
20.05.2019 13:00:00 16,2 12,9 18 10 SSE 1006,6 20 48
20.05.2019 12:00:00 15,4 12,4 18 10 NNE 1006,7 20 60
20.05.2019 11:00:00 14,8 12,3 5 3 NNE 1008,1 30 48
20.05.2019 10:00:00 14,2 11,9 5 3 NNE 1005,9 30 24
20.05.2019 09:00:00 13,2 11,1 5 3 NNE 1005,3 20 18
20.05.2019 08:00:00 12,6 11,7 0 0 N 1004,7 20 -
20.05.2019 07:00:00 12,0 12,0 0 0 N 1004,7 20 -
20.05.2019 06:00:00 11,8 11,8 0 0 N 1005,2 20 -
20.05.2019 05:00:00 11,8 10,9 0 0 N 1005,2 20 -
20.05.2019 04:00:00 12,0 10,9 0 0 N 1005,4 20 -
20.05.2019 03:00:00 12,0 10,7 0 0 N 1005,7 20 -
20.05.2019 02:00:00 12,0 10,6 0 0 N 1006,1 20 -
20.05.2019 01:00:00 12,0 11,7 0 0 N 1006,1 20 -
20.05.2019 00:00:00 12,0 11,8 0 0 N 1006,1 20 -
19.05.2019 23:00:00 12,0 11,7 0 0 N 1006,1 20 -
19.05.2019 22:00:00 12,2 10,8 0 0 N 1005,7 20 -
19.05.2019 21:00:00 12,2 11,6 0 0 N 1005,7 20 -
19.05.2019 20:00:00 13,2 11,3 4 2 SO 1005,2 15 0
19.05.2019 19:00:00 13,6 11,5 0 0 N 1005,1 10 0
19.05.2019 18:00:00 13,4 12,0 0 0 N 1005,0 10 6
19.05.2019 17:00:00 14,2 10,2 18 10 SO 1004,9 20 6
19.05.2019 16:00:00 14,8 11,8 15 8 SO 1004,9 20 0
19.05.2019 15:00:00 15,0 13,0 15 8 SO 1004,8 20 0
19.05.2019 14:00:00 13,4 12,8 15 8 SO 1004,9 20 0
19.05.2019 13:00:00 13,2 12,4 11 6 SO 1004,7 10 0
19.05.2019 12:00:00 12,8 12,7 15 8 SO 1004,8 10 0
19.05.2019 11:00:00 12,6 12,3 8 4 SO 1004,7 20 0
19.05.2019 10:00:00 12,6 12,6 0 0 N 1004,7 20 0
19.05.2019 09:00:00 12,6 12,6 0 0 N 1004,5 20 0
19.05.2019 08:00:00 11,8 11,8 5 3 NNE 1004,5 20 -

tt = Temperatura
td = dewpoint
ff = velocità del vento
dd = direzione del vento
ppp = reduced air pressure
vv = visibility
sd = ore di luce

Stazioni seguenti

WeatherPro
AMSI
MeteoEarth